This is the latest recevied weather packets stored in our database for station/object NC4M. If no packets are shown the sender has not sent any weather packets the latest 10 day(s).
| Time | Temp. | Humidity | Pressure | Rain* | Wind** | Luminosity | Snow |
|---|---|---|---|---|---|---|---|
| 1787877911 | 23.89° C | 71% | 1017.6 hPa | 0 mm | - | 7 W/m² | - |
| 1787877607 | 23.89° C | 71% | 1017.7 hPa | 0 mm | - | 7 W/m² | - |
| 1787877302 | 23.89° C | 71% | 1017.8 hPa | 0 mm | - | 7 W/m² | - |
| 1787877002 | 24.44° C | 70% | 1017.7 hPa | 0 mm | - | 8 W/m² | - |
| 1787876697 | 25° C | 66% | 1017.7 hPa | 0 mm | - | 13 W/m² | - |
| 1787876392 | 25° C | 65% | 1017.5 hPa | 0 mm | - | 14 W/m² | - |
| 1787876091 | 25° C | 64% | 1017.7 hPa | 0 mm | - | 16 W/m² | - |
| 1787875786 | 25.56° C | 62% | 1017.6 hPa | 0 mm | - | 20 W/m² | - |
| 1787875485 | 25.56° C | 64% | 1017.8 hPa | 0 mm | - | 21 W/m² | - |
| 1787875184 | 25.56° C | 63% | 1017.6 hPa | 0 mm | - | 25 W/m² | - |
| 1787874883 | 25.56° C | 60% | 1017.7 hPa | 0 mm | - | 27 W/m² | - |
| 1787874579 | 26.11° C | 61% | 1017.7 hPa | 0 mm | - | 28 W/m² | - |
| 1787874272 | 26.11° C | 59% | 1017.7 hPa | 0 mm | - | 30 W/m² | - |
| 1787873966 | 26.67° C | 58% | 1017.9 hPa | 0 mm | - | 33 W/m² | - |
| 1787873666 | 26.67° C | 56% | 1017.9 hPa | 0 mm | - | 37 W/m² | - |
| 1787873361 | 26.67° C | 58% | 1018 hPa | 0 mm | - | 51 W/m² | - |
| 1787873060 | 26.67° C | 57% | 1018 hPa | 0 mm | - | 66 W/m² | - |
| 1787872755 | 27.22° C | 56% | 1017.8 hPa | 0 mm | - | 71 W/m² | - |
| 1787872451 | 27.22° C | 57% | 1018 hPa | 0 mm | - | 61 W/m² | - |
| 1787872146 | 27.22° C | 56% | 1017.9 hPa | 0 mm | - | 56 W/m² | - |
| 1787871845 | 27.22° C | 58% | 1017.9 hPa | 0 mm | - | 92 W/m² | - |
| 1787871540 | 27.22° C | 57% | 1017.8 hPa | 0 mm | - | 103 W/m² | - |
| 1787871236 | 27.22° C | 57% | 1018.1 hPa | 0 mm | - | 79 W/m² | - |
| 1787870931 | 27.22° C | 55% | 1018 hPa | 0 mm | - | 85 W/m² | - |
| 1787870630 | 27.22° C | 56% | 1018.1 hPa | 0 mm | - | 61 W/m² | - |
* Rain latest hour (hover to see other rain measurements)
** Current wind speed in m/s (hover to see current wind gust speed)